Tracking 28052 objects as of 25-Sep-2023
HD Live streaming from Space Station
objects crossing your sky now

SL-8 DEB

Track SL-8 DEB now!
10-day predictions


NORAD ID: 21212
Int'l Code: 1991-009BF
Perigee: 1,470.5 km
Apogee: 1,844.2 km
Inclination: 74.2 °
Period: 119.3 minutes
Semi major axis: 8028 km
RCS: 0.1545 m2 (medium)
Launch date: February 12, 1991
Source: Commonwealth of Independent States (former USSR) (CIS)
Launch site: PLESETSK MISSILE AND SPACE COMPLEX (PKMTR)

Note: This is SATELLITE DEBRIS
Your satellite tracking list
Your tracking list is empty




NASA's NSSDC Master Catalog

Two Line Element Set (TLE):
1 21212U 91009BF  23267.77842031  .00000307  00000-0  33650-2 0  9998
2 21212  74.1530 105.5259 0232758 177.7858 312.5043 12.06878671431481
Source of the keplerian elements: AFSPC